Weather History for Cincinnati, OH

Change the Weather History Date:

Friday, December 27, 2013

  Actual Average Record
Temperature  
Mean Temperature 36 °F -  
Max Temperature 48 °F 40 °F 71 °F (2008)
Min Temperature 24 °F 25 °F 2 °F (1950)
Degree Days  
Heating Degree Days 29    
Moisture  
Dew Point 27 °F    
Average Humidity 77    
Maximum Humidity 96    
Minimum Humidity 46    
Precipitation  
Precipitation 0.00 in - - ()
Sea Level Pressure  
Sea Level Pressure 30.38 in    
Wind  
Wind Speed 2 mph (SSW)    
Max Wind Speed 9 mph    
Max Gust Speed -    
Visibility 10 miles    
Events      
Averages and records for this station are not official NWS values.
T = Trace of Precipitation, MM = Missing Value Source: NWS Daily Summary

Daily Weather History Graph

Daily Weather History Graph

Search for Another Location

Airport:

Trip Planner

Search our weather history database for the weather conditions in past years. The results will help you decide how hot, cold, wet, or windy it might be!

Date:

Astronomy

Dec. 27, 2013 Rise Set
Actual Time 7:55 AM EST 5:22 PM EST
Civil Twilight 7:25 AM EST 5:52 PM EST
Nautical Twilight 6:52 AM EST 6:25 PM EST
Astronomical Twilight 6:19 AM EST 6:58 PM EST
Moon 2:28 AM EST (12/27) 1:30 PM EST (12/27)
Length of Visible Light 10h 26m
Length of Day
9h 26m
Waning Crescent, 28% of the Moon is Illuminated
Dec 27
Waning Crescent
Jan 1
New
Jan 7
First Quarter
Jan 15
Full
Jan 24
Last Quarter

Hourly Weather History & Observations

Time (EST) Temp. Windchill Dew Point Humidity Pressure Visibility Wind Dir Wind Speed Gust Speed Precip Events Conditions
12:53 AM 28.0 °F - 26.1 °F 92% 30.39 in 10.0 mi Calm Calm - N/A   Clear
1:53 AM 25.0 °F - 23.0 °F 92% 30.39 in 10.0 mi Calm Calm - N/A   Partly Cloudy
2:53 AM 27.0 °F - 25.0 °F 92% 30.40 in 10.0 mi Calm Calm - N/A   Clear
3:53 AM 27.0 °F - 25.0 °F 92% 30.40 in 10.0 mi Calm Calm - N/A   Clear
4:53 AM 25.0 °F - 23.0 °F 92% 30.39 in 10.0 mi Calm Calm - N/A   Clear
5:53 AM 24.1 °F - 23.0 °F 96% 30.39 in 9.0 mi Calm Calm - N/A   Clear
6:53 AM 26.1 °F - 24.1 °F 92% 30.40 in 8.0 mi Calm Calm - N/A   Clear
7:53 AM 28.0 °F - 25.0 °F 88% 30.42 in 8.0 mi Calm Calm - N/A   Clear
8:53 AM 27.0 °F - 26.1 °F 96% 30.43 in 10.0 mi Calm Calm - N/A   Clear
9:53 AM 33.1 °F - 27.0 °F 78% 30.45 in 10.0 mi Calm Calm - N/A   Clear
10:53 AM 39.9 °F 35.1 °F 27.0 °F 60% 30.45 in 10.0 mi SSW 6.9 mph - N/A   Clear
11:53 AM 43.0 °F 38.2 °F 26.1 °F 51% 30.43 in 10.0 mi SW 8.1 mph - N/A   Clear
12:53 PM 45.0 °F 40.6 °F 27.0 °F 49% 30.40 in 10.0 mi SW 8.1 mph - N/A   Clear
1:53 PM 46.9 °F - 28.0 °F 48% 30.38 in 10.0 mi SSW 5.8 mph - N/A   Clear
2:53 PM 48.0 °F - 28.0 °F 46% 30.36 in 10.0 mi SSW 9.2 mph - N/A   Clear
3:53 PM 48.9 °F - 28.9 °F 46% 30.35 in 10.0 mi SSW 8.1 mph - N/A   Clear
4:53 PM 45.0 °F 41.2 °F 28.9 °F 53% 30.35 in 10.0 mi SW 6.9 mph - N/A   Clear
5:53 PM 39.9 °F 35.8 °F 28.0 °F 63% 30.35 in 10.0 mi SSW 5.8 mph - N/A   Clear
6:53 PM 37.0 °F - 28.9 °F 73% 30.35 in 10.0 mi Calm Calm - N/A   Clear
7:53 PM 32.0 °F 26.4 °F 28.9 °F 88% 30.35 in 10.0 mi SSW 5.8 mph - N/A   Clear
8:53 PM 30.0 °F 25.2 °F 28.9 °F 96% 30.35 in 10.0 mi SSW 4.6 mph - N/A   Clear
9:53 PM 32.0 °F - 28.9 °F 88% 30.36 in 10.0 mi Calm Calm - N/A   Clear
10:53 PM 30.0 °F - 26.1 °F 85% 30.35 in 10.0 mi Calm Calm - N/A   Clear
11:53 PM 30.9 °F - 28.0 °F 89% 30.32 in 10.0 mi Calm Calm - N/A   Clear